{"data":{"norad_id":39418,"epoch":"2026-05-25T02:36:05.740128Z","epoch_age_seconds":62722,"freshness":"FRESH","line1":"1 39418U 13066C   26145.10839977  .00002484  00000+0  14425-3 0  9999","line2":"2 39418  97.3830 195.2414 0022387  38.2414 322.0400 15.12822050684990","mean_motion":15.1282205,"eccentricity":0.0022387,"inclination_deg":97.383,"raan_deg":195.2414,"arg_perigee_deg":38.2414,"mean_anomaly_deg":322.04,"bstar":0.00014425,"rev_number":68499,"period_min":95.186343958961,"perigee_km":512.13869102996,"apogee_km":543.05843143181,"semimajor_km":6905.7355612309,"source":"CELESTRAK","updated_at":"2026-05-25T13:38:13.294003Z"}}